ZQ-2E DEB, 69631

Orbit data source: Space-Track

ZQ-2E DEB, 69631 is space debris in LEO originally from a launch on Tue, 09 Jun 2026 UTC launched from the Jiuquan Satellite Launch Center, China (JSC). Debris objects in space refer to the collection of defunct objects orbiting the Earth. Examples of debris include non-operational satellites, rocket bodies, and fragments generated from explosions, collisions, or faulty payload assembly.

Loading next visibility...
Identifier
69631, 2026-128F
Orbit
LEO
Country
Flag of CNCN / PRC
Related business
Flag of CNLandspace (CN)
Manufacturer
Lanjian Hangtian
Mission
Spacecraft
Bus & Motor
Unknown
Mass
Unknown
Launch date (UTC)
2026-06-09 (2 weeks ago)
Launch vehicle
Unknown
Launch site
Jiuquan Satellite Launch Center, China (JSC)
Object type
Payload
Rocket body
Debris
Shape & HBR
Unknown
Radar Cross Section
Medium (>0.1 m² and <1 m²)

Expand to show TLE details & history
Last TLE update: 10 hours ago

TLE from 10 hours ago
0 ZQ-2E DEB
1 69631U 26128F   26171.41806628  .00135193  00000-0  14112-2 0  9999
2 69631  54.5280 288.9503 0067983 332.6012  27.1441 15.60722305  1681
Epoch: 2026-06-20T10:02Z
TLE epoch observation values (Epoch: 2026-06-20T10:02:00.926Z)
Latitude
-0.00001°
Longitude
-130.18654°
Altitude
345.777 km
Speed
7.726 km/s
True Right ascension
19h 15m 48s
True Declination
0° 00' 00"
Sunlit
Object was in full shadow at epoch
Visualization orbit readout
Latitude
Unknown
Longitude
Unknown
Altitude
Unknown
Speed
Unknown
Apparent Right ascension
Unknown
Apparent Declination
Unknown
Sunlit
N/A
Visualization observer readout
Local Sidereal Time
07:12:41
Azimuth
Unknown
Elevation
Unknown
Doppler factor
Unknown
Orbital elements
Apogee altitude
431.589 km
Perigee altitude
339.625 km
Semi-major axis
6,763.744 km
Eccentricity
0.0068
Inclination
54.528°
RAAN
288.9503°
Arg. of periapsis
332.6012°
True anomaly
27.50222°
Mean anomaly
27.1441°
Eccentric anomaly
27.32289°
Mean motion
3.90178 °/min
Orbital period
92.27 mins
BSTAR
0.0014112
Loading maneuver chart data...
Computing Atmospheric mass density...
Loading historical data...
Loading historical data...
Loading historical data...
Loading historical data...
Loading historical data...
Loading historical data...
Loading historical data...

Documentation

Showing up to 5 results
|